Date String (YYYY-MM-DD hh:mm:ss) UTC,Instrument flags,Ambient pressure (hPa),Sample flow (lpm),Bypass flow (lpm),Sample temperature (°C),Ambient temperature (°C),ASC tube jacket temperature (°C),LED temperature (°C),Box temperature (°C),Sample RH (%),Span deviation,Mass concentration (μg/m³),Mass concentration (μg/m³),Mass concentration (μg/m³)
DateTimeUTC,F1_M11,P_M11,Q1_M11,Q2_M11,T1_M11,T2_M11,T3_M11,T4_M11,T5_M11,U1_M11,ZSPAN_M11,X0_M11,X2_M11,X1_M11
2022-09-08 10:00:00,,0827.3,5.01,0.00,30.3,29.2,00.0,39.0,32.1,12.7,0001.8,0028.17,0019.08,0018.18
2022-09-08 10:01:00,,0827.3,4.99,0.00,30.3,29.2,00.0,39.0,32.1,12.7,0002.0,0027.37,0019.07,0018.19
2022-09-08 10:02:00,,0827.3,5.00,0.00,30.3,29.2,00.0,39.0,32.1,12.6,0002.0,0026.82,0019.09,0018.20
2022-09-08 10:03:00,,0827.2,5.01,0.00,30.3,29.3,00.0,39.0,32.2,12.7,0002.2,0027.04,0019.10,0018.21
2022-09-08 10:04:00,,0827.2,4.99,0.00,30.4,29.2,00.0,39.1,32.2,12.6,0002.1,0027.49,0019.10,0018.22
2022-09-08 10:05:00,,0827.2,5.00,0.00,30.4,27.9,00.0,39.0,32.1,12.6,0001.8,0027.32,0019.13,0018.25
2022-09-08 10:06:00,,0827.4,5.01,0.00,30.3,27.1,00.0,39.0,32.0,13.0,0002.0,0028.27,0019.14,0018.23
2022-09-08 10:07:00,,0827.3,5.00,0.00,30.2,27.1,00.0,38.9,31.9,12.9,0001.5,0028.26,0019.23,0018.27
2022-09-08 10:08:00,,0827.2,5.00,0.00,30.1,27.4,00.0,38.9,31.7,12.8,0001.1,0027.91,0019.27,0018.31
2022-09-08 10:09:00,,0827.2,5.00,0.00,30.1,27.7,00.0,38.9,31.7,12.8,0001.6,0027.76,0019.32,0018.34
2022-09-08 10:10:00,,0827.2,5.01,0.00,30.1,28.0,00.0,38.9,31.8,12.9,0001.7,0027.83,0019.35,0018.36
2022-09-08 10:11:00,,0827.3,5.00,0.00,30.1,28.2,00.0,38.9,31.8,12.8,0002.0,0027.69,0019.33,0018.36
2022-09-08 10:12:00,,0827.3,5.00,0.00,30.1,28.4,00.0,38.9,31.8,12.7,0001.5,0028.33,0019.33,0018.35
2022-09-08 10:13:00,,0827.3,5.00,0.00,30.1,28.6,00.0,38.9,31.9,12.8,0001.6,0028.27,0019.35,0018.33
2022-09-08 10:14:00,,0827.3,4.99,0.00,30.1,28.7,00.0,38.9,31.9,13.1,0001.5,0027.57,0019.35,0018.32
2022-09-08 10:15:00,,0827.2,5.01,0.00,30.1,28.8,00.0,38.9,31.9,13.1,0001.4,0026.66,0019.33,0018.31
2022-09-08 10:16:00,,0827.3,5.02,0.00,30.1,28.9,00.0,38.9,31.9,13.0,0001.8,0026.88,0019.28,0018.27
2022-09-08 10:17:00,,0827.4,4.99,0.00,30.1,28.9,00.0,38.9,32.0,13.0,0001.8,0026.27,0019.26,0018.23
2022-09-08 10:18:00,,0827.2,5.01,0.00,30.2,29.0,00.0,38.9,32.0,13.1,0002.2,0026.80,0019.19,0018.19
2022-09-08 10:19:00,,0827.2,5.00,0.00,30.2,29.0,00.0,38.9,32.0,13.1,0002.4,0026.70,0019.17,0018.17
2022-09-08 10:20:00,,0827.2,5.00,0.00,30.2,29.1,00.0,38.9,32.0,13.1,0002.1,0026.47,0019.15,0018.17
2022-09-08 10:21:00,,0827.2,5.00,0.00,30.2,29.1,00.0,39.0,32.1,13.0,0001.8,0027.44,0019.19,0018.17
2022-09-08 10:22:00,,0827.2,5.01,0.00,30.3,29.2,00.0,39.0,32.1,13.0,0001.5,0028.11,0019.23,0018.18
2022-09-08 10:23:00,,0827.2,4.99,0.00,30.3,29.2,00.0,39.0,32.1,13.0,0001.7,0027.73,0019.28,0018.20
2022-09-08 10:24:00,,0827.1,5.01,0.00,30.3,29.2,00.0,39.0,32.2,13.0,0001.7,0028.56,0019.25,0018.20
2022-09-08 10:25:00,,0827.2,4.99,0.00,30.3,29.3,00.0,39.0,32.2,12.8,0001.8,0029.73,0019.22,0018.23
2022-09-08 10:26:00,,0827.2,5.01,0.00,30.3,29.3,00.0,39.1,32.2,12.8,0001.9,0029.60,0019.25,0018.25
2022-09-08 10:27:00,,0827.2,4.98,0.00,30.4,29.3,00.0,39.1,32.2,12.8,0001.7,0028.96,0019.27,0018.28
2022-09-08 10:28:00,,0827.2,5.00,0.00,30.4,29.2,00.0,39.1,32.2,12.8,0001.8,0028.50,0019.28,0018.32
2022-09-08 10:29:00,,0827.2,5.01,0.00,30.4,27.9,00.0,39.1,32.1,12.7,0001.9,0027.88,0019.29,0018.31
2022-09-08 10:30:00,,0827.1,5.00,0.00,30.3,27.1,00.0,39.0,32.1,12.8,0002.1,0027.86,0019.28,0018.31
2022-09-08 10:31:00,,0827.1,5.00,0.00,30.3,27.1,00.0,39.0,32.0,12.9,0002.1,0027.82,0019.21,0018.25
2022-09-08 10:32:00,,0827.1,4.99,0.00,30.2,27.4,00.0,39.0,31.8,12.9,0002.2,0027.03,0019.13,0018.20
2022-09-08 10:33:00,,0827.0,5.00,0.00,30.1,27.8,00.0,39.0,31.8,12.9,0002.3,0026.56,0019.10,0018.12
2022-09-08 10:34:00,,0827.1,5.00,0.00,30.1,28.0,00.0,38.9,31.8,12.9,0002.6,0025.97,0019.01,0018.04
2022-09-08 10:35:00,,0827.1,5.00,0.00,30.1,28.2,00.0,38.9,31.8,12.8,0002.5,0024.98,0018.98,0017.99
2022-09-08 10:36:00,,0827.1,5.00,0.00,30.1,28.4,00.0,38.9,31.9,12.9,0002.3,0023.59,0018.96,0017.94
2022-09-08 10:37:00,,0827.1,5.00,0.00,30.1,28.6,00.0,38.9,31.9,13.0,0002.2,0023.03,0018.91,0017.87
2022-09-08 10:38:00,,0827.1,4.98,0.00,30.1,28.6,00.0,38.9,31.9,13.0,0002.1,0023.24,0018.85,0017.81
2022-09-08 10:39:00,,0827.1,5.01,0.00,30.1,28.7,00.0,38.9,31.9,13.0,0002.1,0024.30,0018.79,0017.76
2022-09-08 10:40:00,,0827.1,5.01,0.00,30.1,28.8,00.0,38.9,32.0,13.1,0002.0,0024.96,0018.73,0017.72
2022-09-08 10:41:00,,0827.0,4.99,0.00,30.2,28.9,00.0,38.9,32.0,13.2,0001.5,0025.07,0018.66,0017.67
2022-09-08 10:42:00,,0827.1,5.00,0.00,30.2,28.9,00.0,38.9,32.0,13.2,0001.6,0024.83,0018.62,0017.63
2022-09-08 10:43:00,,0827.0,5.00,0.00,30.2,29.0,00.0,38.9,32.0,13.2,0002.0,0024.68,0018.59,0017.61
2022-09-08 10:44:00,,0827.0,4.99,0.00,30.2,29.1,00.0,39.0,32.1,13.2,0002.2,0024.49,0018.56,0017.62
2022-09-08 10:45:00,,0827.0,5.01,0.00,30.2,29.1,00.0,39.0,32.1,13.1,0001.9,0024.39,0018.49,0017.58
2022-09-08 10:46:00,,0827.2,4.99,0.00,30.3,29.1,00.0,39.0,32.1,13.0,0001.8,0024.39,0018.41,0017.53
2022-09-08 10:47:00,,0827.2,5.01,0.00,30.3,29.2,00.0,39.0,32.1,13.0,0001.7,0024.50,0018.38,0017.50
2022-09-08 10:48:00,,0827.4,5.01,0.00,30.3,29.2,00.0,39.0,32.1,12.9,0001.6,0024.59,0018.32,0017.47
2022-09-08 10:49:00,,0827.2,4.99,0.00,30.3,29.2,00.0,39.0,32.2,13.0,0002.0,0024.61,0018.34,0017.48
2022-09-08 10:50:00,,0827.4,5.01,0.00,30.4,29.3,00.0,39.1,32.2,12.9,0002.1,0023.90,0018.43,0017.50
2022-09-08 10:51:00,,0827.1,4.99,0.00,30.4,29.3,00.0,39.1,32.2,12.9,0002.4,0023.71,0018.48,0017.54
2022-09-08 10:52:00,,0827.0,4.99,0.00,30.4,28.7,00.0,39.1,32.2,13.0,0002.5,0023.55,0018.55,0017.60
2022-09-08 10:53:00,,0827.1,5.01,0.00,30.3,27.4,00.0,39.1,32.0,12.8,0002.5,0023.67,0018.60,0017.65
2022-09-08 10:54:00,,0827.1,5.00,0.00,30.3,27.2,00.0,39.0,32.0,12.8,0002.3,0024.03,0018.63,0017.68
2022-09-08 10:55:00,,0827.1,4.99,0.00,30.2,27.4,00.0,39.0,31.9,13.1,0001.9,0024.49,0018.63,0017.72
2022-09-08 10:56:00,,0827.1,5.00,0.00,30.2,27.7,00.0,39.0,31.8,13.2,0001.8,0024.67,0018.71,0017.75
2022-09-08 10:57:00,,0827.5,5.00,0.00,30.1,28.0,00.0,38.9,31.8,13.4,0001.7,0024.65,0018.72,0017.75
2022-09-08 10:58:00,,0827.5,5.00,0.00,30.1,28.2,00.0,38.9,31.8,13.9,0001.8,0024.95,0018.67,0017.71
2022-09-08 10:59:00,,0827.1,5.00,0.00,30.1,28.3,00.0,38.9,31.9,13.5,0001.8,0024.96,0018.63,0017.66
